Home   Weather   Durango   Past weeks

Flag for USA Past Weather in Durango, Colorado, USA — Yesterday and Last 2 Weeks

Now
53 °F

Overcast.


Feels Like: 53 °F
Forecast: 44 / 68 °F
Wind: No wind

Location: Durango-La Plata County Airport

Current Time: Sep 30, 2016 at 9:21:24 AM

Latest Report: Sep 30, 2016 at 8:53 AM


Visibility: 10 mi

Pressure: 30.27 "Hg (23.85 "Hg at 1989m altitude)

Humidity: 80%

Dew Point: 47 °F

Location of DurangoLocation

Past Weather in Durango — Graph

°F

Durango Temperature Yesterday

Maximum temperature yesterday: 61 °F (at 12:53 PM)
Minimum temperature yesterday: 52 °F (at 5:53 AM)
Average temperature yesterday: 55 °F

High & Low Weather Summary for the Past Weeks

 TemperatureHumidityPressure
High82 °F (Sep 19, 3:53 PM)97% (Sep 21, 4:53 AM)30.42 "Hg (Sep 21, 4:53 AM)
Low32 °F (Sep 24, 1:53 AM)8% (Sep 18, 3:53 PM)29.75 "Hg (Sep 23, 5:53 AM)
Average56 °F51%30.13 "Hg
* Reported Sep 15 7:53 AM — Sep 30 7:53 AM, Durango, Weather by CustomWeather, © 2016

Note: Actual official high and low records may vary slightly from our data, if they occured in-between our weather recording intervals... More about our weather records

Advertising

Durango Weather History for the Previous 24 Hours

Scroll right to see more
 ConditionsComfort  
Time TempWeatherWind HumidityBarometerVisibility
7:53 AM
Fri, Sep 30
51 °FOvercast.No wind89%30.25 "Hg10 mi
6:53 AM51 °FOvercast.6 mph89%30.25 "Hg10 mi
5:53 AM50 °FOvercast.No wind93%30.25 "Hg10 mi
4:53 AM51 °FPassing clouds.No wind89%30.25 "Hg10 mi
3:53 AM52 °FOvercast.5 mph89%30.24 "Hg10 mi
2:53 AM52 °FMostly cloudy.5 mph93%30.26 "Hg10 mi
1:53 AM52 °FOvercast.No wind93%30.26 "Hg10 mi
12:53 AM53 °FOvercast.No wind86%30.27 "Hg10 mi
11:53 PM
Thu, Sep 29
53 °FOvercast.No wind89%30.28 "Hg10 mi
10:53 PM53 °FMostly cloudy.No wind93%30.30 "Hg10 mi
9:53 PM53 °FMostly cloudy.No wind89%30.32 "Hg10 mi
8:53 PM53 °FPassing clouds.7 mph89%30.32 "Hg10 mi
7:53 PM54 °FOvercast.No wind86%30.33 "Hg10 mi
6:53 PM55 °FOvercast.6 mph83%30.34 "Hg10 mi
5:53 PM55 °FMostly cloudy.7 mph83%30.34 "Hg10 mi
4:53 PM55 °FLight rain. Mostly cloudy.5 mph83%30.36 "Hg10 mi
3:53 PM56 °FPartly sunny.5 mph75%30.35 "Hg10 mi
2:53 PM57 °FLight rain. Overcast.6 mph78%30.36 "Hg10 mi
1:53 PM59 °FLight rain. More clouds than sun.5 mph67%30.32 "Hg10 mi
12:53 PM61 °FLight rain. Mostly cloudy.No wind58%30.32 "Hg10 mi
11:53 AM58 °FOvercast.7 mph72%30.32 "Hg10 mi
10:53 AM54 °FLight rain. Mostly cloudy.5 mph86%30.35 "Hg10 mi
9:53 AM53 °FLight rain. Overcast.6 mph80%30.36 "Hg10 mi
Weather by CustomWeather, © 2016

See weather overviewHow to use our weather pages